Regional Weather Roundup
Issued by NWS Northern Indiana

Home | Current Version | Previous Version | Graphics & Text | Print | Product List | Glossary Off
Versions: 1 2 3 4 5 6 7 8 9 10 11 12 13 14 15 16 17 18 19 20 21 22 23 24 25 26 27 28 29 30 31 32 33 34 35 36 37 38 39 40 41 42 43 44 45 46 47 48 49 50

000
ASUS43 KIWX 231410
RWRIWX

KIWX WEATHER ROUNDUP
NATIONAL WEATHER SERVICE NORTHERN INDIANA
900 AM EST THU NOV 23 2017

NOTE: "FAIR" INDICATES FEW OR NO CLOUDS BELOW 12,000 FEET WITH NO
SIGNIFICANT WEATHER AND/OR OBSTRUCTIONS TO VISIBILITY.

* THESE STATIONS ARE NOT UNDER NWS QUALITY CONTROL. THEY ALSO MAY NOT
  REPORT WEATHER SUCH AS PRECIPITATION OR FOG.

INZ001>027-231500-
NORTHERN INDIANA

CITY           SKY/WX    TMP DP  RH WIND       PRES   REMARKS
GARY*          PTSUNNY   36  21  55 SW12      30.07S
VALPARAISO     CLOUDY    34  23  64 SW7       30.08S WCI  28
MICHIGAN CITY* CLOUDY    32  23  69 S6        30.08R WCI  26
LAPORTE*       CLOUDY    32  23  70 S6        30.08S WCI  26
KNOX*          CLOUDY    32  23  69 SW7       30.08F WCI  26
SOUTH BEND     CLOUDY    31  22  69 S9        30.08F WCI  23
GOSHEN         CLOUDY    31  22  69 S8        30.09S WCI  23
MONTICELLO*    CLOUDY    32  23  68 SW7       30.10S WCI  26
LOGANSPORT*    CLOUDY    32  27  80 S6        30.11S WCI  26
ROCHESTER*     CLOUDY    34  27  75 SW5       30.10S WCI  30
WARSAW*        CLOUDY    32  25  74 SW3       30.09F
AUBURN*        CLOUDY    32  27  80 S3        30.11F
FORT WAYNE     CLOUDY    32  27  81 SW7       30.12S WCI  26
HUNTINGTON*    CLOUDY    31  25  81 S5        30.12S WCI  26
PERU/GRISSOM   CLOUDY    32  27  84 SW6       30.10R WCI  26
MARION*        LGT SNOW  31  26  84 S7        30.13S WCI  24

$$
INZ028>050-231500-
CENTRAL INDIANA

CITY           SKY/WX    TMP DP  RH WIND       PRES   REMARKS
LAFAYETTE      CLOUDY    32  24  72 SW7       30.11F WCI  26
KOKOMO*        CLOUDY    32  27  81 S6        30.12S WCI  26
MUNCIE*        CLOUDY    33  24  69 SW8       30.12S WCI  26
INDIANAPOLIS   CLOUDY    32  25  75 SW8       30.13S WCI  25

$$
MIZ043>046-050>051-056>058-064>065-071>073-077>080-231500-
SOUTHWEST LOWER MICHIGAN

CITY           SKY/WX    TMP DP  RH WIND       PRES   REMARKS
BATTLE CREEK   CLOUDY    31  21  66 SW10      30.07S WCI  22
BENTON HARBOR  CLOUDY    33  20  58 S9        30.06F WCI  25
COLDWATER*     CLOUDY    31  22  68 SW7       30.08S WCI  25
HILLSDALE*     CLOUDY    30  23  74 S6        30.07S WCI  24
HOLLAND        CLOUDY    33  24  69 S12       30.04F WCI  24
GRAND RAPIDS   CLOUDY    33  24  69 S12       30.03F WCI  24
KALAMAZOO      CLOUDY    32  18  56 S9        30.07F WCI  24
STURGIS*       CLOUDY    31  24  75 SW6       30.07F WCI  25
THREE RIVERS*  CLOUDY    32  23  69 S6        30.08S WCI  26

$$
OHZ001>008-015>018-024>025-231500-
NORTHWEST OHIO

CITY           SKY/WX    TMP DP  RH WIND       PRES   REMARKS
WAUSEON*       CLOUDY    30  30 100 S9        30.11F WCI  22
DEFIANCE       CLOUDY    30  24  78 SW7       30.13S WCI  23
FINDLAY        CLOUDY    30  23  75 S7        30.13R WCI  23
TOLEDO EXPRESS CLOUDY    31  26  82 S8        30.12F WCI  23
TOLEDO METCALF CLOUDY    32  25  75 SW10      30.14S WCI  24
LIMA           CLOUDY    30  25  81 S7        30.13R WCI  23

$$
AND FOR LAKE MICHIGAN COASTAL AND OPEN LAKE BUOY OBSERVATIONS

STATION/POSITION TEMP    WIND        PRES    VSBY  WAVE
                 AIR SEA DIR/SP/G                  HT/PER
                 (F)     (DEG/KT/KT) (MB)    (MI)  (FT/S)
CALUMET HARBOR    34     180/  5/  8 1017.0S
MICHIGAN CITY     33     170/  7/  8   N/A
BURNS HARBOR      33     190/  8/ 13 1018.6S
SAINT JOSEPH      33     190/  4/ 10 1018.6
SOUTH LAKE BUOY   38 47  250/ 17/ 19 1017.3          4/ 5

$$
&&




USA.gov is the U.S. government's official web portal to all federal, state and local government web resources and services.